Home   Weather   Coquitlam   Past weeks

Flag for Canada Past Weather in Coquitlam, British Columbia, Canada — Yesterday and Last 2 Weeks

Now
44 °F

Quite cool.


Feels Like: 44 °F
Forecast: 42 / 48 °F
Wind: 1 mph from East

Location: P. Meadows Coastal Station

Current Time: Jan 18, 2017 at 4:23:40 am

Latest Report: Jan 18, 2017 at 3:00 am


Visibility: N/A

Pressure: 29.38 "Hg

Humidity: 100%

Dew Point: 44 °F

Location of CoquitlamLocation

Past Weather in Coquitlam — Graph

°F

Coquitlam Temperature Yesterday

Maximum temperature yesterday: 50 °F (at 10:00 pm)
Minimum temperature yesterday: 38 °F (at 12:00 am)
Average temperature yesterday: 43 °F

High & Low Weather Summary for the Past Weeks

 TemperatureHumidityPressure
High50 °F (Jan 17, 10:00 pm)100% (Jan 18, 3:00 am)30.49 "Hg (Jan 18, 3:00 am)
Low14 °F (Jan 4, 7:00 am)33% (Jan 3, 1:00 pm)29.38 "Hg (Jan 18, 3:00 am)
Average29 °F79%30.06 "Hg
* Reported Jan 3 3:00 am — Jan 18 3:00 am, Coquitlam, Weather by CustomWeather, © 2017

Note: Actual official high and low records may vary slightly from our data, if they occured in-between our weather recording intervals... More about our weather records

Advertising

Coquitlam Weather History for the Previous 24 Hours

Scroll right to see more
 ConditionsComfort  
Time TempWeatherWind HumidityBarometerVisibility
3:00 am
Wed, Jan 18
44 °FQuite cool.1 mph100%29.38 "HgN/A
2:00 am45 °FQuite cool.3 mph93%29.39 "HgN/A
1:00 am47 °FCool.3 mph91%29.41 "HgN/A
12:00 am48 °FCool.5 mph90%29.44 "HgN/A
11:00 pm
Tue, Jan 17
49 °FCool.8 mph86%29.40 "HgN/A
10:00 pm50 °FCool.9 mph86%29.41 "HgN/A
9:00 pm49 °FCool.9 mph87%29.40 "HgN/A
8:00 pm48 °FCool.7 mph95%29.41 "HgN/A
7:00 pm42 °FQuite cool.3 mph96%29.43 "HgN/A
6:00 pm42 °FQuite cool.3 mph88%29.44 "HgN/A
5:00 pm42 °FQuite cool.7 mph94%29.46 "HgN/A
4:00 pm42 °FQuite cool.5 mph88%29.49 "HgN/A
3:00 pm42 °FQuite cool.5 mph93%29.54 "HgN/A
2:00 pm42 °FQuite cool.1 mph85%29.59 "HgN/A
1:00 pm43 °FQuite cool.8 mph92%29.64 "HgN/A
12:00 pm42 °FQuite cool.10 mph92%29.67 "HgN/A
11:00 am42 °FQuite cool.3 mph92%29.68 "HgN/A
10:00 am42 °FQuite cool.12 mph92%29.67 "HgN/A
9:00 am42 °FQuite cool.6 mph90%29.68 "HgN/A
8:00 am40 °FQuite cool.15 mph97%29.67 "HgN/A
7:00 am41 °FQuite cool.10 mph90%29.71 "HgN/A
6:00 am41 °FQuite cool.12 mph88%29.74 "HgN/A
5:00 am42 °FQuite cool.12 mph88%29.77 "HgN/A
4:00 am40 °FQuite cool.10 mph90%29.80 "HgN/A
Weather by CustomWeather, © 2017

See weather overviewHow to use our weather pages